Terminal Aerodrome Forecast
Issued by NWS Los Angeles, CA

Home | Current Version | Previous Version | Text Only | Print | Product List | Glossary On
Versions: 1 2 3 4 5 6 7 8 9 10 11 12 13 14 15 16 17 18 19
752
FTUS46 KLOX 131241 AAA
TAFSMX
TAF AMD
KSMX 131241Z 1313/1412 VRB03KT P6SM BKN250
     FM131600 34005KT P6SM SCT250
     FM132200 34015KT P6SM SKC
     FM140300 34008KT P6SM SKC
     FM140700 VRB03KT P6SM SKC=

USA.gov is the U.S. government's official web portal to all federal, state and local government web resources and services.